Location: Newark
(47.5000°N, 4.6167°E)
Time: 05:56:41
(UTC+00:00)

X-37B - Pass Details

Date: 11 December 2021
Orbit: 334 x 337 km, 45.0° (Epoch: 11 January)

Event Time Altitude Azimuth Distance (km) Brightness Sun altitude
Rises 18:33:48 0° 266° (W) 2,104 5.6 -26.5°
Reaches altitude 10° 18:35:49 10° 261° (W) 1,267 4.2 -26.9°
Enters shadow 18:36:18 14° 258° (WSW) 1,079 3.7 -26.9°
